{"data":{"norad_id":57645,"epoch":"2026-09-20T03:01:47.099712Z","epoch_age_seconds":163864,"freshness":"FRESH","line1":"1 57645U 23122P   26263.12623958 -.00000075  00000+0  68015-5 0  9999","line2":"2 57645  43.0051 292.3250 0001287 276.6274  83.4431 15.27578410173618","mean_motion":15.2757841,"eccentricity":0.0001287,"inclination_deg":43.0051,"raan_deg":292.325,"arg_perigee_deg":276.6274,"mean_anomaly_deg":83.4431,"bstar":6.8015e-6,"rev_number":17361,"period_min":94.266846832432,"perigee_km":482.17082181248,"apogee_km":483.93689233909,"semimajor_km":6861.1908570758,"source":"CELESTRAK","updated_at":"2026-09-21T09:00:33.667855Z"}}